Regional Weather Roundup
Issued by NWS

Home | Current Version | Previous Version | Text Only | Print | Product List | Glossary On
Versions: 1 2 3 4 5 6 7 8 9 10 11 12 13 14 15 16 17 18 19 20 21 22 23 24 25 26 27 28 29 30 31 32 33 34 35 36 37 38 39 40 41 42 43 44 45 46 47 48 49 50
000
ASUS43 KMPX 011810
RWRMN
WEATHER ROUNDUP FOR MINNESOTA
NATIONAL WEATHER SERVICE TWIN CITIES/CHANHASSEN MN
1200 PM CST MON MAR 01 2021


NOTE: "FAIR" INDICATES FEW OR NO CLOUDS BELOW 12,000 FEET WITH NO
SIGNIFICANT WEATHER AND/OR OBSTRUCTIONS TO VISIBILITY. N/A MEANS
CURRENT SKY AND/OR WEATHER CONDITIONS ARE NOT AVAILABLE.

MNZ060>063-068>070-011900-
   Twin Cities Metro

CITY           SKY/WX    TMP DP  RH WIND       PRES   REMARKS
TWIN CITIES    SUNNY     19   1  45 NW3       30.39F
6HR MIN TEMP:  13; 6HR MAX TEMP:  20;

ST PAUL        SUNNY     19  -2  39 N10       30.41S WCI   7
CRYSTAL        SUNNY     17  -2  43 NW7       30.39S WCI   8
BLAINE         SUNNY     18   0  45 N7        30.39S WCI   8
LAKEVILLE      SUNNY     19   1  45 N5        30.38F WCI  13
EDEN PRAIRIE   SUNNY     20   0  41 MISG      30.38S
6HR MIN TEMP:  13; 6HR MAX TEMP:  20;

SOUTH ST PAUL  SUNNY     18  -2  41 CALM      30.40S
$$
MNZ001>005-007-008-013>017-022>024-027-028-011900-
   Northwest Minnesota

CITY           SKY/WX    TMP DP  RH WIND       PRES   REMARKS
BEMIDJI        SUNNY      7 -12  41 CALM      30.37R
HALLOCK        SUNNY      5  -9  51 CALM      30.37F
ROSEAU         SUNNY      7 -17  33 SW6       30.38F WCI  -3
WARROAD        SUNNY      1 -11  55 SW7       30.37F WCI -11
THIEF RVR FALL SUNNY      7  -9  48 S6        30.39F WCI  -3
CROOKSTON      SUNNY      7 -13  40 S3        30.42F
FOSSTON        SUNNY      1 -11  55 SW3       30.38F
DETROIT LAKES  SUNNY      7 -11  43 CALM      30.38S
MOORHEAD       SUNNY      9  -9  43 CALM      30.44S
PARK RAPIDS    SUNNY      8 -10  43 SW3       30.36S
MAHNOMEN       FAIR       6  -9  51 CALM      30.38F
$$
MNZ006-009>011-018-025>026-011900-
   North Central Minnesota

CITY           SKY/WX    TMP DP  RH WIND       PRES   REMARKS
BAUDETTE       SUNNY      1 -14  49 CALM      30.36F
FLAG ISLAND    SUNNY     -4 -13  65 S10       30.35F WCI -21
INTL FALLS     SUNNY      4 -14  43 VRB3      30.35F
6HR MIN TEMP: -11; 6HR MAX TEMP:   4;

WASKISH        SUNNY      1 -13  51 W7        30.39F WCI -11
BIG FORK       SUNNY      7 -17  33 CALM      30.39F
LONGVILLE      SUNNY      7 -11  43 W5        30.37R WCI  -2
GRAND RAPIDS   SUNNY      6 -10  47 W7        30.37S WCI  -6
CRANE LAKE       N/A      3 -17  39 NW5       30.37S WCI  -6
ORR            SUNNY      5 -18  33 W5        30.31F WCI  -4
COOK           SUNNY      7 -15  36 NW5       30.33S WCI  -2
WALKER         CLEAR      8  -9  45 CALM      30.37S
$$
MNZ012-019>021-037-011900-
   Northeast Minnesota

CITY           SKY/WX    TMP DP  RH WIND       PRES   REMARKS
DULUTH         SUNNY      9 -12  38 W7        30.32S WCI  -2
6HR MIN TEMP:   0; 6HR MAX TEMP:   9;

ELY            SUNNY      7 -17  33 NW9       30.30S WCI  -7
HIBBING        SUNNY      6 -11  45 NW6       30.34R WCI  -4
EVELETH        SUNNY      7 -10  45 W6        30.34S WCI  -3
DULUTH HARBOR  SUNNY     10 -11  37 W5        30.42R WCI   2
TWO HARBORS    SUNNY     10 -13  34 W6        30.33S WCI   1
SILVER BAY     SUNNY     12 -17  26 SW3       30.32S
GRAND MARAIS     N/A     15  -7  37 W3        30.32F
G MARAIS ARPRT SUNNY      7 -18  30 NW9G16    30.18F WCI  -7
$$
MNZ029>031-032-039>041-046>048-054>057-064-011900-
   West Central Minnesota

CITY           SKY/WX    TMP DP  RH WIND       PRES   REMARKS
FERGUS FALLS   SUNNY      9  -2  61 W5        30.38R WCI   0
WHEATON        SUNNY     10   3  72 CALM      30.44F
MORRIS         SUNNY     14  -4  44 CALM      30.42S
ALEXANDRIA     SUNNY     12  -1  56 W3        30.38R
ELBOW LAKE     FAIR       9  -3  58 SW3       30.41S
WADENA         SUNNY      9  -9  43 CALM      30.37S
GLENWOOD       SUNNY     12  -2  52 CALM      30.39R
APPLETON       SUNNY     14   3  62 CALM      30.43S
BENSON         SUNNY     14   3  62 W3        30.44R
ORTONVILLE     SUNNY     14   1  57 N3        30.42S
MADISON        SUNNY     16   5  62 CALM      30.45R
WILLMAR        FAIR      16   3  57 SW5       30.44R WCI   9
$$
MNZ033>034-036-042>043-049>051-058-059-011900-
   Central Minnesota

CITY           SKY/WX    TMP DP  RH WIND       PRES   REMARKS
ST CLOUD       SUNNY     13  -4  46 N5        30.40R WCI   5
6HR MIN TEMP:   4; 6HR MAX TEMP:  13;

SAUK CENTRE      N/A     14  -4  44 CALM      30.39R
PAYNESVILLE    SUNNY     14   0  52 N5        30.40R WCI   6
AITKIN         SUNNY     10 -13  34 CALM      30.38S
PINE RIVER     SUNNY     10  -8  44 CALM      30.40R
BRAINERD       SUNNY     10 -12  36 NW5       30.38R WCI   2
STAPLES        SUNNY     10  -4  52 CALM      30.38S
LONG PRAIRIE   FAIR      12  -6  44 NE3       30.38R
LITTLE FALLS   SUNNY     12 -17  26 NE3       30.40R
CAMP RIPLEY    FAIR      11 -10  39 CALM      30.40R
LITCHFIELD       N/A     16   3  57 NE3       30.40R
BUFFALO        SUNNY     17   0  47 MISG      30.41R
HUTCHINSON     SUNNY     17  -3  41 NE6       30.40S WCI   8
$$
MNZ037-044-045-052-053-011900-
   East Central Minnesota

CITY           SKY/WX    TMP DP  RH WIND       PRES   REMARKS
PRINCETON      SUNNY     16  -8  35 CALM      30.40R
MORA           SUNNY     18  -6  35 N3        30.40S
CAMBRIDGE      SUNNY     16  -2  45 CALM      30.40S
RUSH CITY      SUNNY     14  -8  37 CALM      30.40S
MOOSE LAKE     SUNNY     14  -9  34 NW6       30.36S WCI   5
HINCKLEY       CLEAR     16  -8  35 CALM      30.39S
CLOQUET        SUNNY      9 -15  33 NW6       30.33F WCI  -1
MCGREGOR       SUNNY     12 -11  34 CALM      30.38S
$$
MNZ071>073-080-081-089-090-097-098-011900-
   Southwest Minnesota

CITY           SKY/WX    TMP DP  RH WIND       PRES   REMARKS
MONTEVIDEO     SUNNY     12   1  62 CALM      30.43R
GRANITE FALLS  SUNNY     17   7  64 W5        30.45R WCI  10
CANBY          SUNNY     15   4  62 CALM      30.44R
MARSHALL       SUNNY     17   7  64 N6        30.42R WCI   9
REDWOOD FALLS  SUNNY     17   7  64 CALM      30.41R
OLIVIA         SUNNY     14   7  73 CALM      30.42R
PIPESTONE        N/A     18  10  73 NE6       30.36R WCI   9
WINDOM         MOSUNNY   18  12  79 N3        30.37R
WORTHINGTON    MOSUNNY   22  15  75 NE10      30.37R WCI  11
JACKSON        MOSUNNY   21  14  73 NE8       30.36S WCI  12
TRACY          SUNNY     15   7  71 N5        30.39R WCI   7
SLAYTON        SUNNY     15   9  77 N8        30.37R WCI   4
$$
MNZ065>067-074>077-082>085-091>093-011900-
   South Central Minnesota

CITY           SKY/WX    TMP DP  RH WIND       PRES   REMARKS
MANKATO        SUNNY     22  14  71 N7        30.39S WCI  13
NEW ULM        SUNNY     16   1  53 NE6       30.39F WCI   7
ST JAMES       SUNNY     18  10  73 NE7       30.38S WCI   8
FAIRMONT       SUNNY     23  14  68 NE7       30.38S WCI  15
GLENCOE        SUNNY     14   4  64 NW6       30.39F WCI   5
FARIBAULT      SUNNY     18   7  62 NE3       30.37F
OWATONNA       SUNNY     18   7  62 NW7       30.36S WCI   8
WASECA         SUNNY     19   7  58 N7        30.39S WCI  10
ALBERT LEA     SUNNY     18  10  73 N7        30.36R WCI   8
$$
MNZ078>079-086>088-094>096-011900-
   Southeast Minnesota

CITY           SKY/WX    TMP DP  RH WIND       PRES   REMARKS
ROCHESTER      SUNNY     19   8  62 N12G20    30.34R WCI   7
6HR MIN TEMP:  15; 6HR MAX TEMP:  19; 6HR PCP: TRACE;

RED WING       SUNNY     19   1  45 NE5       30.38S WCI  13
STANTON        SUNNY     19   6  58 NE6       30.37F WCI  10
DODGE CENTER   SUNNY     16   7  67 N10       30.34S WCI   3
WINONA         SUNNY     27  12  54 N5        30.38S WCI  21
AUSTIN         SUNNY     19  12  73 N10       30.35R WCI   8
PRESTON        SUNNY     18   5  55 N10       30.34R WCI   7
$$
ABBREVIATIONS USED IN REMARKS
   TC - TEMPERATURES IN CELSIUS
  WCI - WIND CHILL INDEX
   HX - HEAT INDEX
  VSB - VISIBILITY
$$



USA.gov is the U.S. government's official web portal to all federal, state and local government web resources and services.